Location: Colorado Springs
(38.8340°N, 104.8210°W)
Time: 02:18:25
(UTC-06:00)

Tiangong 2 - Pass Details

Date: 14 October 2017
Orbit: 388 x 391 km, 42.8° (Epoch: 20 October)

Event Time Altitude Azimuth Distance (km) Brightness Sun altitude
Exits shadow 04:30:51 10° 66° (ENE) 1,417 4.8 -31.1°
Drops below altitude 10° 04:30:53 10° 66° (ENE) 1,435 4.8 -31.1°
Sets 04:32:58 0° 70° (ENE) 2,278 6.1 -30.7°
